{"data":{"norad_id":61784,"epoch":"2026-09-19T22:22:25.611168Z","epoch_age_seconds":67219,"freshness":"FRESH","line1":"1 61784U 24199BB  26262.93224087  .00059873  00000+0  55867-3 0  9999","line2":"2 61784  97.2745 141.5815 0003578 289.4903  70.5971 15.67137382152353","mean_motion":15.67137382,"eccentricity":0.0003578,"inclination_deg":97.2745,"raan_deg":141.5815,"arg_perigee_deg":289.4903,"mean_anomaly_deg":70.5971,"bstar":0.00055867,"rev_number":15235,"period_min":91.887285476035,"perigee_km":364.6852222608,"apogee_km":369.51211290452,"semimajor_km":6745.2356675827,"source":"CELESTRAK","updated_at":"2026-09-20T09:00:45.241760Z"}}